Weather History for Washington, GA

Change the Weather History Date:

Sunday, September 29, 2013

  Actual Average (KDBN) Record (KDBN)
Temperature  
Mean Temperature 68 °F -  
Max Temperature 77 °F 83 °F 97 °F (1972)
Min Temperature 59 °F 58 °F 40 °F (1967)
Cooling Degree Days 3    
Growing Degree Days 18 (Base 50)    
Moisture  
Dew Point 58 °F    
Average Humidity 82    
Maximum Humidity 100    
Minimum Humidity 44    
Precipitation  
Precipitation 0.00 in - - ()
Sea Level Pressure  
Sea Level Pressure 30.11 in    
Wind  
Wind Speed 3 mph (NE)    
Max Wind Speed 6 mph    
Max Gust Speed -    
Visibility 10 miles    
Events      
Averages and records for this station are not official NWS values.
T = Trace of Precipitation, MM = Missing Value Source: NWS Daily Summary

Daily Weather History Graph

Daily Weather History Graph

Search for Another Location

Airport:

Trip Planner

Search our weather history database for the weather conditions in past years. The results will help you decide how hot, cold, wet, or windy it might be!

Date:

Astronomy

Sep. 29, 2013 Rise Set
Actual Time 7:24 AM EDT 7:17 PM EDT
Civil Twilight 6:59 AM EDT 7:42 PM EDT
Nautical Twilight 6:30 AM EDT 8:11 PM EDT
Astronomical Twilight 6:01 AM EDT 8:40 PM EDT
Moon 2:17 AM EDT (9/29) 4:01 PM EDT (9/29)
Length of Visible Light 12h 43m
Length of Day
11h 53m
Waning Crescent, 27% of the Moon is Illuminated
Sep 29
Waning Crescent
Oct 4
New
Oct 11
First Quarter
Oct 18
Full
Oct 26
Last Quarter

Hourly Weather History & Observations

Time (EDT) Temp. Dew Point Humidity Pressure Visibility Wind Dir Wind Speed Gust Speed Precip Events Conditions
12:15 AM 59.0 °F 55.4 °F 88% 30.16 in 10.0 mi NNE 3.5 mph - N/A   Clear
12:35 AM 59.0 °F 59.0 °F 100% 30.16 in 10.0 mi NNE 3.5 mph - N/A   Clear
12:55 AM 59.0 °F 59.0 °F 100% 30.16 in 10.0 mi NNE 3.5 mph - N/A   Clear
1:15 AM 59.0 °F 59.0 °F 100% 30.16 in 10.0 mi NE 4.6 mph - N/A   Clear
1:35 AM 59.0 °F 57.2 °F 94% 30.17 in 10.0 mi NNE 3.5 mph - N/A   Mostly Cloudy
1:55 AM 59.0 °F 55.4 °F 88% 30.16 in 10.0 mi NE 4.6 mph - N/A   Mostly Cloudy
2:15 AM 59.0 °F 57.2 °F 94% 30.16 in 10.0 mi ENE 3.5 mph - N/A   Scattered Clouds
2:35 AM 59.0 °F 57.2 °F 94% 30.16 in 10.0 mi Calm Calm - N/A   Scattered Clouds
2:55 AM 59.0 °F 57.2 °F 94% 30.16 in 10.0 mi NNE 3.5 mph - N/A   Scattered Clouds
3:15 AM 59.0 °F 59.0 °F 100% 30.16 in 10.0 mi North 3.5 mph - N/A   Scattered Clouds
3:35 AM 59.0 °F 59.0 °F 100% 30.16 in 10.0 mi Calm Calm - N/A   Scattered Clouds
3:55 AM 59.0 °F 59.0 °F 100% 30.15 in 10.0 mi Calm Calm - N/A   Mostly Cloudy
4:15 AM 59.0 °F 59.0 °F 100% 30.15 in 10.0 mi NNE 3.5 mph - N/A   Mostly Cloudy
4:35 AM 59.0 °F 59.0 °F 100% 30.14 in 10.0 mi Calm Calm - N/A   Mostly Cloudy
4:55 AM 59.0 °F 59.0 °F 100% 30.14 in 10.0 mi NNE 3.5 mph - N/A   Mostly Cloudy
5:15 AM 59.0 °F 59.0 °F 100% 30.14 in 10.0 mi Calm Calm - N/A   Mostly Cloudy
5:35 AM 59.0 °F 59.0 °F 100% 30.15 in 10.0 mi NNE 4.6 mph - N/A   Mostly Cloudy
5:55 AM 59.0 °F 59.0 °F 100% 30.14 in 10.0 mi NE 3.5 mph - N/A   Mostly Cloudy
6:15 AM 59.0 °F 57.2 °F 94% 30.15 in 10.0 mi NNE 3.5 mph - N/A   Overcast
6:35 AM 59.0 °F 59.0 °F 100% 30.15 in 10.0 mi NNE 3.5 mph - N/A   Overcast
6:55 AM 59.0 °F 59.0 °F 100% 30.16 in 10.0 mi NE 4.6 mph - N/A   Overcast
7:15 AM 59.0 °F 59.0 °F 100% 30.15 in 10.0 mi NE 4.6 mph - N/A   Overcast
7:35 AM 59.0 °F 59.0 °F 100% 30.16 in 10.0 mi NE 3.5 mph - N/A   Overcast
7:55 AM 59.0 °F 59.0 °F 100% 30.16 in 10.0 mi NE 4.6 mph - N/A   Overcast
8:15 AM 59.0 °F 59.0 °F 100% 30.16 in 10.0 mi NNE 3.5 mph - N/A   Overcast
8:35 AM 59.0 °F 59.0 °F 100% 30.17 in 10.0 mi NE 3.5 mph - N/A   Overcast
8:55 AM 59.0 °F 57.2 °F 94% 30.17 in 10.0 mi NE 4.6 mph - N/A   Scattered Clouds
9:15 AM 60.8 °F 59.0 °F 94% 30.17 in 10.0 mi NE 4.6 mph - N/A   Clear
9:35 AM 62.6 °F 57.2 °F 82% 30.16 in 10.0 mi East 4.6 mph - N/A   Clear
9:55 AM 64.4 °F 59.0 °F 83% 30.16 in 10.0 mi Calm Calm - N/A   Clear
10:15 AM 64.4 °F 59.0 °F 83% 30.16 in 10.0 mi ENE 4.6 mph - N/A   Clear
10:35 AM 66.2 °F 59.0 °F 78% 30.16 in 10.0 mi NNE 3.5 mph - N/A   Clear
10:55 AM 68.0 °F 59.0 °F 73% 30.16 in 10.0 mi East 4.6 mph - N/A   Clear
11:15 AM 69.8 °F 59.0 °F 68% 30.15 in 10.0 mi Calm Calm - N/A   Clear
11:35 AM 68.0 °F 57.2 °F 68% 30.15 in 10.0 mi ENE 3.5 mph - N/A   Scattered Clouds
11:55 AM 71.6 °F 59.0 °F 64% 30.15 in 10.0 mi ESE 3.5 mph - N/A   Scattered Clouds
12:15 PM 75.2 °F 59.0 °F 57% 30.14 in 10.0 mi North 3.5 mph - N/A   Scattered Clouds
12:35 PM 71.6 °F 57.2 °F 60% 30.13 in 10.0 mi East 5.8 mph - N/A   Scattered Clouds
12:55 PM 75.2 °F 55.4 °F 50% 30.13 in 10.0 mi East 5.8 mph - N/A   Scattered Clouds
1:15 PM 75.2 °F 55.4 °F 50% 30.12 in 10.0 mi Calm Calm - N/A   Scattered Clouds
1:35 PM 75.2 °F 55.4 °F 50% 30.12 in 10.0 mi NE 3.5 mph - N/A   Clear
1:55 PM 75.2 °F 57.2 °F 53% 30.10 in 10.0 mi NNE 3.5 mph - N/A   Scattered Clouds
2:15 PM 75.2 °F 53.6 °F 47% 30.09 in 10.0 mi Calm Calm - N/A   Scattered Clouds
2:35 PM 75.2 °F 55.4 °F 50% 30.08 in 10.0 mi NNE 4.6 mph - N/A   Scattered Clouds
2:55 PM 75.2 °F 55.4 °F 50% 30.07 in 10.0 mi Calm Calm - N/A   Scattered Clouds
3:15 PM 75.2 °F 55.4 °F 50% 30.06 in 10.0 mi NE 4.6 mph - N/A   Scattered Clouds
3:35 PM 75.2 °F 53.6 °F 47% 30.06 in 10.0 mi NNE 4.6 mph - N/A   Scattered Clouds
3:55 PM 75.2 °F 53.6 °F 47% 30.05 in 10.0 mi NNE 3.5 mph - N/A   Scattered Clouds
4:15 PM 77.0 °F 53.6 °F 44% 30.05 in 10.0 mi North 4.6 mph - N/A   Scattered Clouds
4:35 PM 75.2 °F 59.0 °F 57% 30.04 in 10.0 mi NNE 3.5 mph - N/A   Mostly Cloudy
4:55 PM 75.2 °F 55.4 °F 50% 30.05 in 10.0 mi Calm Calm - N/A   Scattered Clouds
5:15 PM 75.2 °F 59.0 °F 57% 30.05 in 10.0 mi NNE 3.5 mph - N/A   Scattered Clouds
5:35 PM 71.6 °F 59.0 °F 64% 30.05 in 10.0 mi Calm Calm - N/A   Scattered Clouds
5:55 PM 71.6 °F 59.0 °F 64% 30.05 in 10.0 mi NNE 3.5 mph - N/A   Clear
6:15 PM 69.8 °F 59.0 °F 68% 30.05 in 10.0 mi NNE 3.5 mph - N/A   Clear
6:35 PM 69.8 °F 59.0 °F 68% 30.05 in 10.0 mi NE 3.5 mph - N/A   Clear
6:55 PM 68.0 °F 59.0 °F 73% 30.06 in 10.0 mi NNE 3.5 mph - N/A   Clear
7:15 PM 66.2 °F 59.0 °F 78% 30.05 in 10.0 mi NE 3.5 mph - N/A   Clear
7:35 PM 64.4 °F 60.8 °F 88% 30.05 in 10.0 mi NNE 3.5 mph - N/A   Clear
7:55 PM 64.4 °F 60.8 °F 88% 30.06 in 10.0 mi Calm Calm - N/A   Clear
8:15 PM 64.4 °F 62.6 °F 94% 30.06 in 10.0 mi Calm Calm - N/A   Clear
8:35 PM 64.4 °F 60.8 °F 88% 30.06 in 10.0 mi NE 3.5 mph - N/A   Clear
8:55 PM 62.6 °F 60.8 °F 94% 30.06 in 10.0 mi Calm Calm - N/A   Clear
9:15 PM 62.6 °F 60.8 °F 94% 30.07 in 10.0 mi Calm Calm - N/A   Clear
9:35 PM 62.6 °F 59.0 °F 88% 30.08 in 10.0 mi Calm Calm - N/A   Clear
9:55 PM 62.6 °F 60.8 °F 94% 30.07 in 10.0 mi Calm Calm - N/A   Clear
10:15 PM 62.6 °F 60.8 °F 94% 30.07 in 10.0 mi Calm Calm - N/A   Clear
10:35 PM 62.6 °F 60.8 °F 94% 30.07 in 10.0 mi Calm Calm - N/A   Clear
10:55 PM 62.6 °F 60.8 °F 94% 30.07 in 10.0 mi Calm Calm - N/A   Clear
11:15 PM 62.6 °F 62.6 °F 100% 30.07 in 10.0 mi Calm Calm - N/A   Clear
11:35 PM 60.8 °F 60.8 °F 100% 30.06 in 10.0 mi Calm Calm - N/A   Clear
11:55 PM 59.0 °F 59.0 °F 100% 30.06 in 10.0 mi Calm Calm - N/A   Clear